Weather History for Ahoskie, NC

Change the Weather History Date:

Saturday, March 30, 2013

  Actual Average (KEMV) Record (KEMV)
Temperature  
Mean Temperature 48 °F -  
Max Temperature 65 °F 66 °F 89 °F (1985)
Min Temperature 32 °F 42 °F 30 °F (1983)
Degree Days  
Heating Degree Days 16    
Moisture  
Dew Point 30 °F    
Average Humidity 56    
Maximum Humidity 90    
Minimum Humidity 20    
Precipitation  
Precipitation 0.00 in - - ()
Sea Level Pressure  
Sea Level Pressure 30.18 in    
Wind  
Wind Speed 1 mph (NNE)    
Max Wind Speed 9 mph    
Max Gust Speed 9 mph    
Visibility 10 miles    
Events      
Averages and records for this station are not official NWS values.
T = Trace of Precipitation, MM = Missing Value Source: NWS Daily Summary

Daily Weather History Graph

Daily Weather History Graph

Search for Another Location

Airport:

Trip Planner

Search our weather history database for the weather conditions in past years. The results will help you decide how hot, cold, wet, or windy it might be!

Date:

Astronomy

Mar. 30, 2013 Rise Set
Actual Time 6:57 AM EDT 7:29 PM EDT
Civil Twilight 6:31 AM EDT 7:55 PM EDT
Nautical Twilight 6:01 AM EDT 8:25 PM EDT
Astronomical Twilight 5:30 AM EDT 8:56 PM EDT
Moon 11:26 PM EDT (3/30) 8:57 AM EDT (3/30)
Length of Visible Light 13h 23m
Length of Day
12h 31m
Waning Gibbous, 86% of the Moon is Illuminated
Mar 30
Waning Gibbous
Apr 3
Last Quarter
Apr 10
New
Apr 18
First Quarter
Apr 25
Full

Hourly Weather History & Observations

Time (EDT) Temp. Windchill Dew Point Humidity Pressure Visibility Wind Dir Wind Speed Gust Speed Precip Events Conditions
12:15 AM 37.6 °F - 32.0 °F 80% 30.21 in 10.0 mi Calm Calm - N/A   Scattered Clouds
12:35 AM 37.6 °F - 32.0 °F 80% 30.21 in 10.0 mi Calm Calm - N/A   Scattered Clouds
12:55 AM 36.5 °F - 32.0 °F 84% 30.21 in 10.0 mi Calm Calm - N/A   Scattered Clouds
1:15 AM 36.5 °F - 31.8 °F 83% 30.21 in 10.0 mi Calm Calm - N/A   Mostly Cloudy
1:55 AM 35.1 °F - 31.6 °F 87% 30.21 in 10.0 mi Calm Calm - N/A   Scattered Clouds
2:15 AM 35.1 °F - 31.1 °F 85% 30.20 in 10.0 mi Calm Calm - N/A   Clear
2:35 AM 35.1 °F - 31.5 °F 87% 30.20 in 10.0 mi Calm Calm - N/A   Scattered Clouds
2:55 AM 35.1 °F - 31.6 °F 87% 30.20 in 10.0 mi Calm Calm - N/A   Scattered Clouds
3:15 AM 32.5 °F - 30.0 °F 90% 30.19 in 10.0 mi Calm Calm - N/A   Scattered Clouds
3:35 AM 32.5 °F - 30.0 °F 90% 30.19 in 10.0 mi Calm Calm - N/A   Clear
3:55 AM 32.5 °F - 30.0 °F 90% 30.19 in 10.0 mi Calm Calm - N/A   Scattered Clouds
4:15 AM 32.5 °F - 30.0 °F 90% 30.19 in 10.0 mi Calm Calm - N/A   Overcast
4:35 AM 32.5 °F - 30.0 °F 90% 30.19 in 10.0 mi Calm Calm - N/A   Scattered Clouds
4:55 AM 32.5 °F - 30.0 °F 90% 30.19 in 10.0 mi Calm Calm - N/A   Scattered Clouds
5:15 AM 32.5 °F - 30.0 °F 90% 30.19 in 10.0 mi Calm Calm - N/A   Overcast
5:35 AM 32.5 °F - 30.0 °F 90% 30.19 in 10.0 mi Calm Calm - N/A   Overcast
5:55 AM 32.5 °F - 29.7 °F 89% 30.19 in 10.0 mi Calm Calm - N/A   Overcast
6:15 AM 32.5 °F - 30.0 °F 90% 30.19 in 10.0 mi Calm Calm - N/A   Mostly Cloudy
6:35 AM 32.5 °F - 30.0 °F 90% 30.21 in 10.0 mi Calm Calm - N/A   Scattered Clouds
6:55 AM 32.7 °F - 30.2 °F 90% 30.21 in 10.0 mi Calm Calm - N/A   Mostly Cloudy
7:15 AM 35.1 °F - 32.0 °F 89% 30.22 in 10.0 mi Calm Calm - N/A   Mostly Cloudy
7:55 AM 35.1 °F - 32.0 °F 89% 30.22 in 10.0 mi Calm Calm - N/A   Mostly Cloudy
8:15 AM 37.0 °F - 32.9 °F 85% 30.23 in 10.0 mi Calm Calm - N/A   Scattered Clouds
8:35 AM 40.1 °F - 33.4 °F 77% 30.24 in 10.0 mi Calm Calm - N/A   Clear
8:55 AM 44.6 °F - 36.1 °F 72% 30.24 in 10.0 mi Calm Calm - N/A   Scattered Clouds
9:15 AM 45.1 °F 43.7 °F 34.0 °F 65% 30.24 in 10.0 mi North 3.5 mph - N/A   Scattered Clouds
9:35 AM 48.6 °F - 35.6 °F 61% 30.23 in 10.0 mi Calm Calm - N/A   Scattered Clouds
9:55 AM 50.0 °F - 34.3 °F 55% 30.23 in 10.0 mi North 4.6 mph - N/A   Clear
10:15 AM 52.7 °F - 33.1 °F 47% 30.23 in 10.0 mi North 4.6 mph - N/A   Clear
10:35 AM 55.0 °F - 31.5 °F 41% 30.23 in 10.0 mi North 5.8 mph - N/A   Clear
10:55 AM 56.1 °F - 29.1 °F 36% 30.23 in 10.0 mi NNE 5.8 mph - N/A   Clear
11:15 AM 57.0 °F - 27.1 °F 32% 30.23 in 10.0 mi Calm Calm - N/A   Clear
11:35 AM 57.6 °F - 25.0 °F 29% 30.22 in 10.0 mi Calm Calm - N/A   Clear
11:55 AM 57.9 °F - 21.4 °F 24% 30.22 in 10.0 mi North 9.2 mph - N/A   Clear
12:15 PM 58.3 °F - 20.7 °F 23% 30.21 in 10.0 mi North 6.9 mph - N/A   Clear
12:35 PM 58.5 °F - 21.0 °F 24% 30.20 in 10.0 mi NNE 6.9 mph - N/A   Clear
12:55 PM 60.3 °F - 22.5 °F 23% 30.20 in 10.0 mi NW 3.5 mph 9.2 mph N/A   Clear
1:15 PM 60.3 °F - 22.1 °F 23% 30.19 in 10.0 mi NNW 4.6 mph - N/A   Clear
1:35 PM 62.6 °F - 24.6 °F 24% 30.18 in 10.0 mi West 8.1 mph - N/A   Clear
1:55 PM 61.0 °F - 21.4 °F 22% 30.17 in 10.0 mi Calm Calm - N/A   Clear
2:15 PM 62.1 °F - 22.1 °F 22% 30.16 in 10.0 mi NNW 3.5 mph - N/A   Clear
2:35 PM 62.2 °F - 21.9 °F 21% 30.15 in 10.0 mi NNE 5.8 mph - N/A   Clear
2:55 PM 63.5 °F - 23.4 °F 22% 30.15 in 10.0 mi NNW 3.5 mph - N/A   Clear
3:15 PM 65.3 °F - 26.1 °F 23% 30.15 in 10.0 mi Calm Calm - N/A   Scattered Clouds
3:35 PM 65.3 °F - 23.7 °F 21% 30.14 in 10.0 mi NW 3.5 mph - N/A   Scattered Clouds
3:55 PM 65.3 °F - 23.0 °F 20% 30.13 in 10.0 mi WNW 5.8 mph - N/A   Clear
4:15 PM 65.3 °F - 23.0 °F 20% 30.13 in 10.0 mi NNW 5.8 mph - N/A   Clear
4:35 PM 65.3 °F - 25.3 °F 22% 30.12 in 10.0 mi Calm Calm - N/A   Clear
4:55 PM 65.3 °F - 24.6 °F 21% 30.12 in 10.0 mi West 3.5 mph - N/A   Clear
5:15 PM 65.3 °F - 24.1 °F 21% 30.11 in 10.0 mi Calm Calm - N/A   Clear
5:35 PM 65.3 °F - 23.5 °F 20% 30.12 in 10.0 mi Calm Calm - N/A   Clear
5:55 PM 65.3 °F - 24.3 °F 21% 30.12 in 10.0 mi Calm Calm - N/A   Clear
6:15 PM 63.5 °F - 24.3 °F 22% 30.12 in 10.0 mi Calm Calm - N/A   Clear
6:35 PM 62.6 °F - 23.7 °F 23% 30.12 in 10.0 mi Calm Calm - N/A   Clear
6:55 PM 59.2 °F - 25.7 °F 28% 30.11 in 10.0 mi Calm Calm - N/A   Clear
7:15 PM 57.6 °F - 28.0 °F 32% 30.12 in 10.0 mi Calm Calm - N/A   Clear
7:55 PM 52.7 °F - 33.1 °F 47% 30.13 in 10.0 mi Calm Calm - N/A   Clear
8:15 PM 51.1 °F - 33.3 °F 51% 30.14 in 10.0 mi Calm Calm - N/A   Clear
8:35 PM 50.0 °F - 34.3 °F 55% 30.14 in 10.0 mi Calm Calm - N/A   Clear
8:55 PM 48.6 °F - 35.8 °F 61% 30.15 in 10.0 mi East 9.2 mph - N/A   Clear
9:15 PM 50.0 °F - 35.4 °F 57% 30.16 in 10.0 mi East 4.6 mph - N/A   Clear
9:35 PM 50.0 °F - 37.2 °F 62% 30.16 in 10.0 mi ESE 4.6 mph - N/A   Clear
9:55 PM 50.0 °F - 38.5 °F 65% 30.16 in 10.0 mi ESE 3.5 mph - N/A   Clear
10:15 PM 50.0 °F - 39.6 °F 67% 30.16 in 10.0 mi ESE 3.5 mph - N/A   Scattered Clouds
10:35 PM 49.1 °F - 39.9 °F 71% 30.16 in 10.0 mi Calm Calm - N/A   Clear
10:55 PM 48.9 °F - 40.3 °F 72% 30.15 in 10.0 mi ESE 4.6 mph - N/A   Clear
11:15 PM 47.5 °F - 39.2 °F 73% 30.15 in 10.0 mi ESE 3.5 mph - N/A   Clear
11:35 PM 47.5 °F - 39.7 °F 75% 30.15 in 10.0 mi ESE 3.5 mph - N/A   Clear
11:55 PM 45.1 °F 43.7 °F 39.0 °F 79% 30.15 in 10.0 mi SE 3.5 mph - N/A   Clear